Regional Weather Roundup
Issued by NWS Sioux Falls, SD

Home | Current Version | Previous Version | Text Only | Print | Product List | Glossary On
Versions: 1 2 3 4 5 6 7 8 9 10 11 12 13 14 15 16 17 18 19 20 21 22 23 24 25 26 27 28 29 30 31 32 33 34 35 36 37 38 39 40 41 42 43 44 45 46 47 48 49 50
000
ASUS43 KFSD 030510
RWRFSD

WEATHER ROUNDUP FOR SE SOUTH DAKOTA/SW MINNESOTA/NW IOWA
NATIONAL WEATHER SERVICE SIOUX FALLS SD
1200 AM CDT THU SEP 03 2015

NOTE: "FAIR" INDICATES FEW OR NO CLOUDS BELOW 12,000 FEET WITH NO
SIGNIFICANT WEATHER AND OR OBSTRUCTIONS TO VISIBILITY.


SDZ038>040-050-052>070-030600-
SOUTHEAST SOUTH DAKOTA

CITY           SKY/WX    TMP DP  RH WIND       PRES   REMARKS
BROOKINGS      CLEAR     73  70  88 SE13      29.86F
CHAMBERLAIN    CLEAR     76  67  73 S9        29.76S
HURON          CLEAR     75  72  90 SE12      29.77S
MADISON        FAIR      72  72 100 SE8       29.85F
MITCHELL       CLEAR     74  72  93 SE10      29.79S
SIOUX FALLS    PTCLDY    74  70  87 SE5       29.85S
WINNER         FAIR      82  56  40 S14       29.78S
YANKTON        CLEAR     72  70  94 CALM      29.81S
$$

MNZ071-072-080-081-089-090-097-098-030600-
SOUTHWEST MINNESOTA

CITY           SKY/WX    TMP DP  RH WIND       PRES   REMARKS
FAIRMONT       CLEAR     72  64  78 S7        29.89R
JACKSON        CLEAR     72  70  94 S7        29.90S
LUVERNE        CLEAR     72  70  94 SE3       29.87S
MARSHALL       CLEAR     72  66  83 SE7       29.87S
MONTEVIDEO     CLEAR     72  72 100 SE8       29.88R FOG
PIPESTONE      CLEAR     72  70  94 SE5       29.88S
REDWOOD FALLS  CLEAR     73  71  93 E8        29.86S FOG
TRACY          CLEAR     73  71  94 S5        29.87S
WINDOM         CLEAR     72  70  94 CALM      29.89S
WORTHINGTON    CLEAR     72  66  83 S7        29.89S
$$

IAZ001>003-012>014-020>022-031-032-NEZ013-014-SDZ071-030600-
NORTHWEST IOWA

CITY           SKY/WX    TMP DP  RH WIND       PRES   REMARKS
CHEROKEE       CLEAR     71  71  99 CALM      29.87F
DENISON        CLEAR     75  70  83 S10G17    29.87S
ESTHERVILLE    CLEAR     69  68  96 S6        29.89S
LE MARS        CLEAR     73  72  94 SE6       29.86F
ORANGE CITY    CLEAR     73  72  94 SE3       29.87S
SHELDON        CLEAR     70  70 100 E5        29.86S
SIOUX CITY     CLEAR     72  68  87 SE7       29.84S
SPENCER        CLEAR     72  69  90 SE3       29.88F FOG
STORM LAKE     CLEAR     72  70  94 S7        29.90F
$$

ABBREVIATIONS USED IN REMARKS
   TC - TEMPERATURE IN CELSIUS
  WCI - WIND CHILL INDEX
   HX - HEAT INDEX
  VSB - VISIBILITY



USA.gov is the U.S. government's official web portal to all federal, state and local government web resources and services.